owner,sensor,date,latitude,longitude,vertical_datum,sea_water_temperature,qcFlag
Chevron,ioos:station:wmo:42385:1,2022-08-01T00:18:00Z,28.3400,-88.2657,29.4,29.3,11111222
Chevron,ioos:station:wmo:42385:1,2022-08-01T00:38:00Z,28.3400,-88.2657,29.4,29.3,11111222
Chevron,ioos:station:wmo:42385:1,2022-08-01T00:58:00Z,28.3400,-88.2657,29.4,29.4,11111222
Chevron,ioos:station:wmo:42385:1,2022-08-01T01:18:00Z,28.3400,-88.2657,29.4,29.1,11111222
Chevron,ioos:station:wmo:42385:1,2022-08-01T01:38:00Z,28.3400,-88.2657,29.4,29.4,11111222
Chevron,ioos:station:wmo:42385:1,2022-08-01T01:58:00Z,28.3400,-88.2657,29.4,29.6,11111222
Chevron,ioos:station:wmo:42385:1,2022-08-01T02:18:00Z,28.3400,-88.2657,29.4,29.8,11111222
Chevron,ioos:station:wmo:42385:1,2022-08-01T02:38:00Z,28.3400,-88.2657,29.4,29.8,11111222
Chevron,ioos:station:wmo:42385:1,2022-08-01T02:58:00Z,28.3400,-88.2657,29.4,29.6,11111222
Chevron,ioos:station:wmo:42385:1,2022-08-01T03:18:00Z,28.3400,-88.2657,29.4,29.6,11111222
Chevron,ioos:station:wmo:42385:1,2022-08-01T03:38:00Z,28.3400,-88.2657,29.4,29.6,11111222
Chevron,ioos:station:wmo:42385:1,2022-08-01T03:58:00Z,28.3400,-88.2657,29.4,29.3,11111222
Chevron,ioos:station:wmo:42385:1,2022-08-01T04:18:00Z,28.3400,-88.2657,29.4,29.4,11111222
Chevron,ioos:station:wmo:42385:1,2022-08-01T04:38:00Z,28.3400,-88.2657,29.4,29.4,11111222
Chevron,ioos:station:wmo:42385:1,2022-08-01T04:58:00Z,28.3400,-88.2657,29.4,29.3,11111222
Chevron,ioos:station:wmo:42385:1,2022-08-01T05:18:00Z,28.3400,-88.2657,29.4,29.6,11111222
Chevron,ioos:station:wmo:42385:1,2022-08-01T05:38:00Z,28.3400,-88.2657,29.4,29.6,11111222
Chevron,ioos:station:wmo:42385:1,2022-08-01T05:58:00Z,28.3400,-88.2657,29.4,29.6,11111222
Chevron,ioos:station:wmo:42385:1,2022-08-01T06:18:00Z,28.3400,-88.2657,29.4,29.7,11111222
Chevron,ioos:station:wmo:42385:1,2022-08-01T06:38:00Z,28.3400,-88.2657,29.4,29.6,11111222
Chevron,ioos:station:wmo:42385:1,2022-08-01T06:58:00Z,28.3400,-88.2657,29.4,29.5,11111222
Chevron,ioos:station:wmo:42385:1,2022-08-01T07:18:00Z,28.3400,-88.2657,29.4,29.6,11111222
Chevron,ioos:station:wmo:42385:1,2022-08-01T07:38:00Z,28.3400,-88.2657,29.4,29.5,11111222
Chevron,ioos:station:wmo:42385:1,2022-08-01T07:58:00Z,28.3400,-88.2657,29.4,29.8,11111222
Chevron,ioos:station:wmo:42385:1,2022-08-01T08:18:00Z,28.3400,-88.2657,29.4,29.7,11111222
Chevron,ioos:station:wmo:42385:1,2022-08-01T08:38:00Z,28.3400,-88.2657,29.4,29.7,11111222
Chevron,ioos:station:wmo:42385:1,2022-08-01T08:58:00Z,28.3400,-88.2657,29.4,29.6,11111222
Chevron,ioos:station:wmo:42385:1,2022-08-01T09:18:00Z,28.3400,-88.2657,29.4,29.6,11111222
Chevron,ioos:station:wmo:42385:1,2022-08-01T09:38:00Z,28.3400,-88.2657,29.4,29.7,11111222
Chevron,ioos:station:wmo:42385:1,2022-08-01T09:58:00Z,28.3400,-88.2657,29.4,29.8,11111222
Chevron,ioos:station:wmo:42385:1,2022-08-01T10:18:00Z,28.3400,-88.2657,29.4,29.6,11111222
Chevron,ioos:station:wmo:42385:1,2022-08-01T10:38:00Z,28.3400,-88.2657,29.4,29.5,11111222
Chevron,ioos:station:wmo:42385:1,2022-08-01T10:58:00Z,28.3400,-88.2657,29.4,29.6,11111222
Chevron,ioos:station:wmo:42385:1,2022-08-01T11:18:00Z,28.3400,-88.2657,29.4,28.9,11111222
Chevron,ioos:station:wmo:42385:1,2022-08-01T11:38:00Z,28.3400,-88.2657,29.4,28.5,11111222
Chevron,ioos:station:wmo:42385:1,2022-08-01T11:58:00Z,28.3400,-88.2657,29.4,29.2,11111222
Chevron,ioos:station:wmo:42385:1,2022-08-01T12:18:00Z,28.3400,-88.2657,29.4,29.3,11111222
Chevron,ioos:station:wmo:42385:1,2022-08-01T15:54:00Z,28.3400,-88.2657,29.4,28.2,11111222
Chevron,ioos:station:wmo:42385:1,2022-08-01T16:14:00Z,28.3400,-88.2657,29.4,28.0,11111222
Chevron,ioos:station:wmo:42385:1,2022-08-01T16:34:00Z,28.3400,-88.2657,29.4,28.3,11111222
Chevron,ioos:station:wmo:42385:1,2022-08-01T16:54:00Z,28.3400,-88.2657,29.4,28.1,11111222
Chevron,ioos:station:wmo:42385:1,2022-08-01T17:14:00Z,28.3400,-88.2657,29.4,28.3,11111222
Chevron,ioos:station:wmo:42385:1,2022-08-01T17:34:00Z,28.3400,-88.2657,29.4,28.2,11111222
Chevron,ioos:station:wmo:42385:1,2022-08-01T17:52:00Z,28.3400,-88.2657,29.4,29.6,41111222
Chevron,ioos:station:wmo:42385:1,2022-08-01T17:54:00Z,28.3400,-88.2657,29.4,28.4,11111222
Chevron,ioos:station:wmo:42385:1,2022-08-01T18:12:00Z,28.3400,-88.2657,29.4,29.0,41111222
Chevron,ioos:station:wmo:42385:1,2022-08-01T18:14:00Z,28.3400,-88.2657,29.4,28.4,11111222
Chevron,ioos:station:wmo:42385:1,2022-08-01T18:32:00Z,28.3400,-88.2657,29.4,29.4,41111222
Chevron,ioos:station:wmo:42385:1,2022-08-01T18:34:00Z,28.3400,-88.2657,29.4,28.4,11111222
Chevron,ioos:station:wmo:42385:1,2022-08-01T18:52:00Z,28.3400,-88.2657,29.4,29.2,41111222
Chevron,ioos:station:wmo:42385:1,2022-08-01T18:54:00Z,28.3400,-88.2657,29.4,28.3,11111222
Chevron,ioos:station:wmo:42385:1,2022-08-01T19:12:00Z,28.3400,-88.2657,29.4,28.7,41111222
Chevron,ioos:station:wmo:42385:1,2022-08-01T19:14:00Z,28.3400,-88.2657,29.4,28.2,11111222
Chevron,ioos:station:wmo:42385:1,2022-08-01T19:32:00Z,28.3400,-88.2657,29.4,28.4,41111222
Chevron,ioos:station:wmo:42385:1,2022-08-01T19:34:00Z,28.3400,-88.2657,29.4,28.2,11111222
Chevron,ioos:station:wmo:42385:1,2022-08-01T19:52:00Z,28.3400,-88.2657,29.4,28.2,41111222
Chevron,ioos:station:wmo:42385:1,2022-08-01T19:54:00Z,28.3400,-88.2657,29.4,28.6,11111222
Chevron,ioos:station:wmo:42385:1,2022-08-01T20:12:00Z,28.3400,-88.2657,29.4,28.0,41111222
Chevron,ioos:station:wmo:42385:1,2022-08-01T20:14:00Z,28.3400,-88.2657,29.4,28.9,11111222
Chevron,ioos:station:wmo:42385:1,2022-08-01T20:32:00Z,28.3400,-88.2657,29.4,27.9,41111222
Chevron,ioos:station:wmo:42385:1,2022-08-01T20:34:00Z,28.3400,-88.2657,29.4,28.8,11111222
Chevron,ioos:station:wmo:42385:1,2022-08-01T20:54:00Z,28.3400,-88.2657,29.4,29.3,11111222
Chevron,ioos:station:wmo:42385:1,2022-08-01T21:14:00Z,28.3400,-88.2657,29.4,29.0,11111222
Chevron,ioos:station:wmo:42385:1,2022-08-01T21:34:00Z,28.3400,-88.2657,29.4,29.3,11111222
Chevron,ioos:station:wmo:42385:1,2022-08-01T21:54:00Z,28.3400,-88.2657,29.4,29.0,11111222
Chevron,ioos:station:wmo:42385:1,2022-08-01T22:14:00Z,28.3400,-88.2657,29.4,29.2,11111222
Chevron,ioos:station:wmo:42385:1,2022-08-01T22:34:00Z,28.3400,-88.2657,29.4,28.8,11111222
Chevron,ioos:station:wmo:42385:1,2022-08-01T22:54:00Z,28.3400,-88.2657,29.4,28.6,11111222
Chevron,ioos:station:wmo:42385:1,2022-08-01T23:14:00Z,28.3400,-88.2657,29.4,29.1,11111222
Chevron,ioos:station:wmo:42385:1,2022-08-01T23:34:00Z,28.3400,-88.2657,29.4,28.9,11111222
Chevron,ioos:station:wmo:42385:1,2022-08-01T23:54:00Z,28.3400,-88.2657,29.4,28.5,11111222
Chevron,ioos:station:wmo:42385:1,2022-08-02T00:14:00Z,28.3400,-88.2657,29.4,29.0,11111222
Chevron,ioos:station:wmo:42385:1,2022-08-02T00:34:00Z,28.3400,-88.2657,29.4,28.9,11111222
Chevron,ioos:station:wmo:42385:1,2022-08-02T00:54:00Z,28.3400,-88.2657,29.4,28.9,11111222
Chevron,ioos:station:wmo:42385:1,2022-08-02T01:14:00Z,28.3400,-88.2657,29.4,29.1,11111222
Chevron,ioos:station:wmo:42385:1,2022-08-02T01:34:00Z,28.3400,-88.2657,29.4,29.0,11111222
Chevron,ioos:station:wmo:42385:1,2022-08-02T01:54:00Z,28.3400,-88.2657,29.4,28.8,11111222
Chevron,ioos:station:wmo:42385:1,2022-08-02T02:14:00Z,28.3400,-88.2657,29.4,28.7,11111222
Chevron,ioos:station:wmo:42385:1,2022-08-02T02:34:00Z,28.3400,-88.2657,29.4,29.0,11111222
Chevron,ioos:station:wmo:42385:1,2022-08-02T02:54:00Z,28.3400,-88.2657,29.4,28.9,11111222
Chevron,ioos:station:wmo:42385:1,2022-08-02T03:14:00Z,28.3400,-88.2657,29.4,28.9,11111222
Chevron,ioos:station:wmo:42385:1,2022-08-02T03:34:00Z,28.3400,-88.2657,29.4,28.7,11111222
Chevron,ioos:station:wmo:42385:1,2022-08-02T03:54:00Z,28.3400,-88.2657,29.4,29.1,11111222
Chevron,ioos:station:wmo:42385:1,2022-08-02T04:14:00Z,28.3400,-88.2657,29.4,29.2,11111222
Chevron,ioos:station:wmo:42385:1,2022-08-02T04:34:00Z,28.3400,-88.2657,29.4,29.1,11111222
Chevron,ioos:station:wmo:42385:1,2022-08-02T04:54:00Z,28.3400,-88.2657,29.4,29.5,11111222
Chevron,ioos:station:wmo:42385:1,2022-08-02T05:14:00Z,28.3400,-88.2657,29.4,29.3,11111222
Chevron,ioos:station:wmo:42385:1,2022-08-02T05:34:00Z,28.3400,-88.2657,29.4,29.3,11111222
Chevron,ioos:station:wmo:42385:1,2022-08-02T05:54:00Z,28.3400,-88.2657,29.4,29.4,11111222
Chevron,ioos:station:wmo:42385:1,2022-08-02T06:14:00Z,28.3400,-88.2657,29.4,29.4,11111222
Chevron,ioos:station:wmo:42385:1,2022-08-02T06:34:00Z,28.3400,-88.2657,29.4,29.4,11111222
Chevron,ioos:station:wmo:42385:1,2022-08-02T06:54:00Z,28.3400,-88.2657,29.4,29.5,11111222
Chevron,ioos:station:wmo:42385:1,2022-08-02T07:14:00Z,28.3400,-88.2657,29.4,29.2,11111222
Chevron,ioos:station:wmo:42385:1,2022-08-02T07:34:00Z,28.3400,-88.2657,29.4,29.1,11111222
Chevron,ioos:station:wmo:42385:1,2022-08-02T07:54:00Z,28.3400,-88.2657,29.4,29.2,11111222
Chevron,ioos:station:wmo:42385:1,2022-08-02T08:14:00Z,28.3400,-88.2657,29.4,29.6,11111222
Chevron,ioos:station:wmo:42385:1,2022-08-02T08:34:00Z,28.3400,-88.2657,29.4,29.2,11111222
Chevron,ioos:station:wmo:42385:1,2022-08-02T08:54:00Z,28.3400,-88.2657,29.4,29.3,11111222
Chevron,ioos:station:wmo:42385:1,2022-08-02T09:14:00Z,28.3400,-88.2657,29.4,29.7,11111222
Chevron,ioos:station:wmo:42385:1,2022-08-02T09:34:00Z,28.3400,-88.2657,29.4,29.7,11111222
Chevron,ioos:station:wmo:42385:1,2022-08-02T09:54:00Z,28.3400,-88.2657,29.4,29.6,11111222
Chevron,ioos:station:wmo:42385:1,2022-08-02T10:14:00Z,28.3400,-88.2657,29.4,29.8,11111222
Chevron,ioos:station:wmo:42385:1,2022-08-02T10:34:00Z,28.3400,-88.2657,29.4,29.4,11111222
Chevron,ioos:station:wmo:42385:1,2022-08-02T10:54:00Z,28.3400,-88.2657,29.4,29.3,11111222
Chevron,ioos:station:wmo:42385:1,2022-08-02T11:14:00Z,28.3400,-88.2657,29.4,28.7,11111222
Chevron,ioos:station:wmo:42385:1,2022-08-02T11:34:00Z,28.3400,-88.2657,29.4,28.6,11111222
Chevron,ioos:station:wmo:42385:1,2022-08-02T11:54:00Z,28.3400,-88.2657,29.4,28.7,11111222
Chevron,ioos:station:wmo:42385:1,2022-08-02T12:14:00Z,28.3400,-88.2657,29.4,28.6,11111222
Chevron,ioos:station:wmo:42385:1,2022-08-02T12:34:00Z,28.3400,-88.2657,29.4,28.7,11111222
Chevron,ioos:station:wmo:42385:1,2022-08-02T12:54:00Z,28.3400,-88.2657,29.4,28.6,11111222
Chevron,ioos:station:wmo:42385:1,2022-08-02T13:14:00Z,28.3400,-88.2657,29.4,28.4,11111222
Chevron,ioos:station:wmo:42385:1,2022-08-02T13:34:00Z,28.3400,-88.2657,29.4,28.2,11111222
Chevron,ioos:station:wmo:42385:1,2022-08-02T13:54:00Z,28.3400,-88.2657,29.4,28.3,11111222
Chevron,ioos:station:wmo:42385:1,2022-08-02T14:14:00Z,28.3400,-88.2657,29.4,28.2,11111222
Chevron,ioos:station:wmo:42385:1,2022-08-02T14:34:00Z,28.3400,-88.2657,29.4,28.4,11111222
Chevron,ioos:station:wmo:42385:1,2022-08-02T14:54:00Z,28.3400,-88.2657,29.4,28.6,11111222
Chevron,ioos:station:wmo:42385:1,2022-08-02T15:14:00Z,28.3400,-88.2657,29.4,28.5,11111222
Chevron,ioos:station:wmo:42385:1,2022-08-02T15:34:00Z,28.3400,-88.2657,29.4,28.6,11111222
Chevron,ioos:station:wmo:42385:1,2022-08-02T15:54:00Z,28.3400,-88.2657,29.4,28.1,11111222
Chevron,ioos:station:wmo:42385:1,2022-08-02T16:14:00Z,28.3400,-88.2657,29.4,28.2,11111222
Chevron,ioos:station:wmo:42385:1,2022-08-02T16:34:00Z,28.3400,-88.2657,29.4,27.6,11111222
Chevron,ioos:station:wmo:42385:1,2022-08-02T16:54:00Z,28.3400,-88.2657,29.4,27.9,11111222
Chevron,ioos:station:wmo:42385:1,2022-08-02T17:14:00Z,28.3400,-88.2657,29.4,28.0,11111222
Chevron,ioos:station:wmo:42385:1,2022-08-02T17:34:00Z,28.3400,-88.2657,29.4,27.1,11111222
Chevron,ioos:station:wmo:42385:1,2022-08-02T17:54:00Z,28.3400,-88.2657,29.4,28.0,11111222
Chevron,ioos:station:wmo:42385:1,2022-08-02T18:14:00Z,28.3400,-88.2657,29.4,27.9,11111222
Chevron,ioos:station:wmo:42385:1,2022-08-02T18:34:00Z,28.3400,-88.2657,29.4,27.8,11111222
Chevron,ioos:station:wmo:42385:1,2022-08-02T18:54:00Z,28.3400,-88.2657,29.4,27.5,11111222
Chevron,ioos:station:wmo:42385:1,2022-08-02T19:14:00Z,28.3400,-88.2657,29.4,27.6,11111222
Chevron,ioos:station:wmo:42385:1,2022-08-02T19:34:00Z,28.3400,-88.2657,29.4,27.9,11111222
Chevron,ioos:station:wmo:42385:1,2022-08-02T19:54:00Z,28.3400,-88.2657,29.4,27.9,11111222
Chevron,ioos:station:wmo:42385:1,2022-08-02T20:14:00Z,28.3400,-88.2657,29.4,27.9,11111222
Chevron,ioos:station:wmo:42385:1,2022-08-02T20:34:00Z,28.3400,-88.2657,29.4,28.1,11111222
Chevron,ioos:station:wmo:42385:1,2022-08-02T20:54:00Z,28.3400,-88.2657,29.4,27.8,11111222
Chevron,ioos:station:wmo:42385:1,2022-08-02T21:14:00Z,28.3400,-88.2657,29.4,28.0,11111222
Chevron,ioos:station:wmo:42385:1,2022-08-02T21:34:00Z,28.3400,-88.2657,29.4,27.9,11111222
Chevron,ioos:station:wmo:42385:1,2022-08-02T21:54:00Z,28.3400,-88.2657,29.4,28.2,11111222
Chevron,ioos:station:wmo:42385:1,2022-08-02T22:14:00Z,28.3400,-88.2657,29.4,28.1,11111222
Chevron,ioos:station:wmo:42385:1,2022-08-02T22:34:00Z,28.3400,-88.2657,29.4,28.5,11111222
Chevron,ioos:station:wmo:42385:1,2022-08-02T22:54:00Z,28.3400,-88.2657,29.4,27.9,11111222
Chevron,ioos:station:wmo:42385:1,2022-08-02T23:14:00Z,28.3400,-88.2657,29.4,27.7,11111222
Chevron,ioos:station:wmo:42385:1,2022-08-02T23:34:00Z,28.3400,-88.2657,29.4,27.3,11111222
Chevron,ioos:station:wmo:42385:1,2022-08-02T23:54:00Z,28.3400,-88.2657,29.4,27.7,11111222
Chevron,ioos:station:wmo:42385:1,2022-08-03T00:14:00Z,28.3400,-88.2657,29.4,27.6,11111222
Chevron,ioos:station:wmo:42385:1,2022-08-03T00:34:00Z,28.3400,-88.2657,29.4,27.7,11111222
Chevron,ioos:station:wmo:42385:1,2022-08-03T00:54:00Z,28.3400,-88.2657,29.4,28.1,11111222
Chevron,ioos:station:wmo:42385:1,2022-08-03T01:14:00Z,28.3400,-88.2657,29.4,28.2,11111222
Chevron,ioos:station:wmo:42385:1,2022-08-03T01:34:00Z,28.3400,-88.2657,29.4,28.6,11111222
Chevron,ioos:station:wmo:42385:1,2022-08-03T01:54:00Z,28.3400,-88.2657,29.4,28.8,11111222
Chevron,ioos:station:wmo:42385:1,2022-08-03T02:14:00Z,28.3400,-88.2657,29.4,29.2,11111222
Chevron,ioos:station:wmo:42385:1,2022-08-03T02:34:00Z,28.3400,-88.2657,29.4,29.4,11111222
Chevron,ioos:station:wmo:42385:1,2022-08-03T02:54:00Z,28.3400,-88.2657,29.4,29.6,11111222
Chevron,ioos:station:wmo:42385:1,2022-08-03T03:14:00Z,28.3400,-88.2657,29.4,29.4,11111222
Chevron,ioos:station:wmo:42385:1,2022-08-03T03:34:00Z,28.3400,-88.2657,29.4,29.5,11111222
Chevron,ioos:station:wmo:42385:1,2022-08-03T03:54:00Z,28.3400,-88.2657,29.4,28.9,11111222
Chevron,ioos:station:wmo:42385:1,2022-08-03T04:14:00Z,28.3400,-88.2657,29.4,29.4,11111222
Chevron,ioos:station:wmo:42385:1,2022-08-03T04:34:00Z,28.3400,-88.2657,29.4,29.1,11111222
Chevron,ioos:station:wmo:42385:1,2022-08-03T04:54:00Z,28.3400,-88.2657,29.4,29.0,11111222
Chevron,ioos:station:wmo:42385:1,2022-08-03T05:14:00Z,28.3400,-88.2657,29.4,29.2,11111222
Chevron,ioos:station:wmo:42385:1,2022-08-03T05:34:00Z,28.3400,-88.2657,29.4,29.0,11111222
Chevron,ioos:station:wmo:42385:1,2022-08-03T05:54:00Z,28.3400,-88.2657,29.4,29.2,11111222
Chevron,ioos:station:wmo:42385:1,2022-08-03T06:14:00Z,28.3400,-88.2657,29.4,29.2,11111222
Chevron,ioos:station:wmo:42385:1,2022-08-03T06:34:00Z,28.3400,-88.2657,29.4,28.6,11111222
Chevron,ioos:station:wmo:42385:1,2022-08-03T06:54:00Z,28.3400,-88.2657,29.4,28.8,11111222
Chevron,ioos:station:wmo:42385:1,2022-08-03T07:14:00Z,28.3400,-88.2657,29.4,28.5,11111222
Chevron,ioos:station:wmo:42385:1,2022-08-03T07:34:00Z,28.3400,-88.2657,29.4,28.4,11111222
Chevron,ioos:station:wmo:42385:1,2022-08-03T07:54:00Z,28.3400,-88.2657,29.4,28.4,11111222
Chevron,ioos:station:wmo:42385:1,2022-08-03T08:14:00Z,28.3400,-88.2657,29.4,29.0,11111222
Chevron,ioos:station:wmo:42385:1,2022-08-03T08:34:00Z,28.3400,-88.2657,29.4,28.6,11111222
Chevron,ioos:station:wmo:42385:1,2022-08-03T08:54:00Z,28.3400,-88.2657,29.4,28.9,11111222
Chevron,ioos:station:wmo:42385:1,2022-08-03T09:14:00Z,28.3400,-88.2657,29.4,28.4,11111222
Chevron,ioos:station:wmo:42385:1,2022-08-03T09:34:00Z,28.3400,-88.2657,29.4,28.5,11111222
Chevron,ioos:station:wmo:42385:1,2022-08-03T09:54:00Z,28.3400,-88.2657,29.4,28.6,11111222
Chevron,ioos:station:wmo:42385:1,2022-08-03T10:14:00Z,28.3400,-88.2657,29.4,28.9,11111222
Chevron,ioos:station:wmo:42385:1,2022-08-03T10:34:00Z,28.3400,-88.2657,29.4,28.5,11111222
Chevron,ioos:station:wmo:42385:1,2022-08-03T10:54:00Z,28.3400,-88.2657,29.4,28.5,11111222
Chevron,ioos:station:wmo:42385:1,2022-08-03T11:14:00Z,28.3400,-88.2657,29.4,28.6,11111222
Chevron,ioos:station:wmo:42385:1,2022-08-03T11:34:00Z,28.3400,-88.2657,29.4,28.6,11111222
Chevron,ioos:station:wmo:42385:1,2022-08-03T11:54:00Z,28.3400,-88.2657,29.4,28.7,11111222
Chevron,ioos:station:wmo:42385:1,2022-08-03T12:14:00Z,28.3400,-88.2657,29.4,28.3,11111222
Chevron,ioos:station:wmo:42385:1,2022-08-03T12:34:00Z,28.3400,-88.2657,29.4,28.2,11111222
Chevron,ioos:station:wmo:42385:1,2022-08-03T12:54:00Z,28.3400,-88.2657,29.4,28.1,11111222
Chevron,ioos:station:wmo:42385:1,2022-08-03T13:14:00Z,28.3400,-88.2657,29.4,27.9,11111222
Chevron,ioos:station:wmo:42385:1,2022-08-03T13:34:00Z,28.3400,-88.2657,29.4,27.7,11111222
Chevron,ioos:station:wmo:42385:1,2022-08-03T13:54:00Z,28.3400,-88.2657,29.4,27.5,11111222
Chevron,ioos:station:wmo:42385:1,2022-08-03T14:14:00Z,28.3400,-88.2657,29.4,27.1,11111222
Chevron,ioos:station:wmo:42385:1,2022-08-03T14:34:00Z,28.3400,-88.2657,29.4,27.1,11111222
Chevron,ioos:station:wmo:42385:1,2022-08-03T14:54:00Z,28.3400,-88.2657,29.4,26.9,11111222
Chevron,ioos:station:wmo:42385:1,2022-08-03T15:14:00Z,28.3400,-88.2657,29.4,27.0,11111222
Chevron,ioos:station:wmo:42385:1,2022-08-03T15:34:00Z,28.3400,-88.2657,29.4,26.8,11111222
Chevron,ioos:station:wmo:42385:1,2022-08-03T15:54:00Z,28.3400,-88.2657,29.4,27.0,11111222
Chevron,ioos:station:wmo:42385:1,2022-08-03T16:14:00Z,28.3400,-88.2657,29.4,26.9,11111222
Chevron,ioos:station:wmo:42385:1,2022-08-03T16:34:00Z,28.3400,-88.2657,29.4,27.0,11111222
Chevron,ioos:station:wmo:42385:1,2022-08-03T16:54:00Z,28.3400,-88.2657,29.4,27.4,11111222
Chevron,ioos:station:wmo:42385:1,2022-08-03T17:14:00Z,28.3400,-88.2657,29.4,27.3,11111222
Chevron,ioos:station:wmo:42385:1,2022-08-03T17:34:00Z,28.3400,-88.2657,29.4,27.2,11111222
Chevron,ioos:station:wmo:42385:1,2022-08-03T17:54:00Z,28.3400,-88.2657,29.4,27.2,11111222
Chevron,ioos:station:wmo:42385:1,2022-08-03T18:14:00Z,28.3400,-88.2657,29.4,27.1,11111222
Chevron,ioos:station:wmo:42385:1,2022-08-03T18:34:00Z,28.3400,-88.2657,29.4,27.1,11111222
Chevron,ioos:station:wmo:42385:1,2022-08-03T18:54:00Z,28.3400,-88.2657,29.4,27.2,11111222
Chevron,ioos:station:wmo:42385:1,2022-08-03T19:14:00Z,28.3400,-88.2657,29.4,27.0,11111222
Chevron,ioos:station:wmo:42385:1,2022-08-03T19:34:00Z,28.3400,-88.2657,29.4,26.8,11111222
Chevron,ioos:station:wmo:42385:1,2022-08-03T19:54:00Z,28.3400,-88.2657,29.4,26.7,11111222
Chevron,ioos:station:wmo:42385:1,2022-08-03T20:14:00Z,28.3400,-88.2657,29.4,26.7,11111222
Chevron,ioos:station:wmo:42385:1,2022-08-03T20:34:00Z,28.3400,-88.2657,29.4,26.8,11111222
Chevron,ioos:station:wmo:42385:1,2022-08-03T20:54:00Z,28.3400,-88.2657,29.4,26.7,11111222
Chevron,ioos:station:wmo:42385:1,2022-08-03T21:14:00Z,28.3400,-88.2657,29.4,26.7,11111222
Chevron,ioos:station:wmo:42385:1,2022-08-03T21:34:00Z,28.3400,-88.2657,29.4,26.9,11111222
Chevron,ioos:station:wmo:42385:1,2022-08-03T21:54:00Z,28.3400,-88.2657,29.4,26.6,11111222
Chevron,ioos:station:wmo:42385:1,2022-08-03T22:14:00Z,28.3400,-88.2657,29.4,27.4,11111222
Chevron,ioos:station:wmo:42385:1,2022-08-03T22:33:00Z,28.3400,-88.2657,29.4,27.1,11111222
Chevron,ioos:station:wmo:42385:1,2022-08-03T22:53:00Z,28.3400,-88.2657,29.4,27.6,11111222
Chevron,ioos:station:wmo:42385:1,2022-08-03T23:13:00Z,28.3400,-88.2657,29.4,27.5,11111222
Chevron,ioos:station:wmo:42385:1,2022-08-03T23:33:00Z,28.3400,-88.2657,29.4,27.6,11111222
Chevron,ioos:station:wmo:42385:1,2022-08-03T23:53:00Z,28.3400,-88.2657,29.4,27.6,11111222
Chevron,ioos:station:wmo:42385:1,2022-08-04T00:13:00Z,28.3400,-88.2657,29.4,27.9,11111222
Chevron,ioos:station:wmo:42385:1,2022-08-04T00:33:00Z,28.3400,-88.2657,29.4,28.0,11111222
Chevron,ioos:station:wmo:42385:1,2022-08-04T00:53:00Z,28.3400,-88.2657,29.4,28.3,11111222
Chevron,ioos:station:wmo:42385:1,2022-08-04T01:13:00Z,28.3400,-88.2657,29.4,28.6,11111222
Chevron,ioos:station:wmo:42385:1,2022-08-04T01:33:00Z,28.3400,-88.2657,29.4,28.6,11111222
Chevron,ioos:station:wmo:42385:1,2022-08-04T01:53:00Z,28.3400,-88.2657,29.4,29.1,11111222
Chevron,ioos:station:wmo:42385:1,2022-08-04T02:13:00Z,28.3400,-88.2657,29.4,28.9,11111222
Chevron,ioos:station:wmo:42385:1,2022-08-04T02:33:00Z,28.3400,-88.2657,29.4,29.3,11111222
Chevron,ioos:station:wmo:42385:1,2022-08-04T02:53:00Z,28.3400,-88.2657,29.4,29.4,11111222
Chevron,ioos:station:wmo:42385:1,2022-08-04T03:13:00Z,28.3400,-88.2657,29.4,29.4,11111222
Chevron,ioos:station:wmo:42385:1,2022-08-04T03:33:00Z,28.3400,-88.2657,29.4,28.5,11111222
Chevron,ioos:station:wmo:42385:1,2022-08-04T03:53:00Z,28.3400,-88.2657,29.4,28.4,11111222
Chevron,ioos:station:wmo:42385:1,2022-08-04T04:13:00Z,28.3400,-88.2657,29.4,28.6,11111222
Chevron,ioos:station:wmo:42385:1,2022-08-04T04:33:00Z,28.3400,-88.2657,29.4,28.3,11111222
Chevron,ioos:station:wmo:42385:1,2022-08-04T04:53:00Z,28.3400,-88.2657,29.4,28.7,11111222
Chevron,ioos:station:wmo:42385:1,2022-08-04T05:13:00Z,28.3400,-88.2657,29.4,28.1,11111222
Chevron,ioos:station:wmo:42385:1,2022-08-04T05:33:00Z,28.3400,-88.2657,29.4,28.2,11111222
Chevron,ioos:station:wmo:42385:1,2022-08-04T05:53:00Z,28.3400,-88.2657,29.4,28.0,11111222
Chevron,ioos:station:wmo:42385:1,2022-08-04T06:13:00Z,28.3400,-88.2657,29.4,28.1,11111222
Chevron,ioos:station:wmo:42385:1,2022-08-04T06:33:00Z,28.3400,-88.2657,29.4,29.2,11111222
Chevron,ioos:station:wmo:42385:1,2022-08-04T06:53:00Z,28.3400,-88.2657,29.4,28.0,11111222
Chevron,ioos:station:wmo:42385:1,2022-08-04T07:13:00Z,28.3400,-88.2657,29.4,28.1,11111222
Chevron,ioos:station:wmo:42385:1,2022-08-04T07:33:00Z,28.3400,-88.2657,29.4,28.0,11111222
Chevron,ioos:station:wmo:42385:1,2022-08-04T07:53:00Z,28.3400,-88.2657,29.4,28.0,11111222
Chevron,ioos:station:wmo:42385:1,2022-08-04T08:13:00Z,28.3400,-88.2657,29.4,28.2,11111222
Chevron,ioos:station:wmo:42385:1,2022-08-04T08:33:00Z,28.3400,-88.2657,29.4,28.2,11111222
Chevron,ioos:station:wmo:42385:1,2022-08-04T08:53:00Z,28.3400,-88.2657,29.4,28.2,11111222
Chevron,ioos:station:wmo:42385:1,2022-08-04T09:13:00Z,28.3400,-88.2657,29.4,28.8,11111222
Chevron,ioos:station:wmo:42385:1,2022-08-04T09:33:00Z,28.3400,-88.2657,29.4,28.6,11111222
Chevron,ioos:station:wmo:42385:1,2022-08-04T09:53:00Z,28.3400,-88.2657,29.4,28.6,11111222
Chevron,ioos:station:wmo:42385:1,2022-08-04T10:13:00Z,28.3400,-88.2657,29.4,28.6,11111222
Chevron,ioos:station:wmo:42385:1,2022-08-04T10:33:00Z,28.3400,-88.2657,29.4,29.2,11111222
Chevron,ioos:station:wmo:42385:1,2022-08-04T10:53:00Z,28.3400,-88.2657,29.4,29.6,11111222
Chevron,ioos:station:wmo:42385:1,2022-08-04T11:13:00Z,28.3400,-88.2657,29.4,29.6,11111222
Chevron,ioos:station:wmo:42385:1,2022-08-04T11:33:00Z,28.3400,-88.2657,29.4,29.5,11111222
Chevron,ioos:station:wmo:42385:1,2022-08-04T11:53:00Z,28.3400,-88.2657,29.4,29.3,11111222
Chevron,ioos:station:wmo:42385:1,2022-08-04T12:13:00Z,28.3400,-88.2657,29.4,29.1,11111222
Chevron,ioos:station:wmo:42385:1,2022-08-04T12:33:00Z,28.3400,-88.2657,29.4,29.2,11111222
Chevron,ioos:station:wmo:42385:1,2022-08-04T12:53:00Z,28.3400,-88.2657,29.4,28.7,11111222
Chevron,ioos:station:wmo:42385:1,2022-08-04T13:13:00Z,28.3400,-88.2657,29.4,28.9,11111222
Chevron,ioos:station:wmo:42385:1,2022-08-04T13:33:00Z,28.3400,-88.2657,29.4,28.9,11111222
Chevron,ioos:station:wmo:42385:1,2022-08-04T13:53:00Z,28.3400,-88.2657,29.4,28.6,11111222
Chevron,ioos:station:wmo:42385:1,2022-08-04T14:13:00Z,28.3400,-88.2657,29.4,28.4,11111222
Chevron,ioos:station:wmo:42385:1,2022-08-04T14:33:00Z,28.3400,-88.2657,29.4,28.2,11111222
Chevron,ioos:station:wmo:42385:1,2022-08-04T14:53:00Z,28.3400,-88.2657,29.4,27.6,11111222
Chevron,ioos:station:wmo:42385:1,2022-08-04T15:13:00Z,28.3400,-88.2657,29.4,27.1,11111222
Chevron,ioos:station:wmo:42385:1,2022-08-04T15:33:00Z,28.3400,-88.2657,29.4,27.1,11111222